Year,Month,Day,Hour,Minute,Value (Times are PST for temperature in C)
2015,09,29,00,00,8.80
2015,09,29,00,01,8.80
2015,09,29,00,02,8.80
2015,09,29,00,03,8.80
2015,09,29,00,04,8.80
2015,09,29,00,05,8.80
2015,09,29,00,06,8.80
2015,09,29,00,07,8.70
2015,09,29,00,08,8.70
2015,09,29,00,09,8.70
2015,09,29,00,10,8.70
2015,09,29,00,11,8.70
2015,09,29,00,12,8.70
2015,09,29,00,13,8.70
2015,09,29,00,14,8.70
2015,09,29,00,15,8.70
2015,09,29,00,16,8.70
2015,09,29,00,17,8.70
2015,09,29,00,18,8.70
2015,09,29,00,19,8.70
2015,09,29,00,20,8.70
2015,09,29,00,21,8.70
2015,09,29,00,22,8.70
2015,09,29,00,23,8.60
2015,09,29,00,24,8.60
2015,09,29,00,25,8.60
2015,09,29,00,26,8.60
2015,09,29,00,27,8.60
2015,09,29,00,28,8.60
2015,09,29,00,29,8.60
2015,09,29,00,30,8.60
2015,09,29,00,31,8.60
2015,09,29,00,32,8.60
2015,09,29,00,33,8.60
2015,09,29,00,34,8.60
2015,09,29,00,35,8.60
2015,09,29,00,36,8.60
2015,09,29,00,37,8.60
2015,09,29,00,38,8.60
2015,09,29,00,39,8.60
2015,09,29,00,40,8.60
2015,09,29,00,41,8.50
2015,09,29,00,42,8.50
2015,09,29,00,43,8.50
2015,09,29,00,44,8.50
2015,09,29,00,45,8.50
2015,09,29,00,46,8.50
2015,09,29,00,47,8.40
2015,09,29,00,48,8.40
2015,09,29,00,49,8.40
2015,09,29,00,50,8.40
2015,09,29,00,51,8.40
2015,09,29,00,52,8.40
2015,09,29,00,53,8.40
2015,09,29,00,54,8.40
2015,09,29,00,55,8.40
2015,09,29,00,56,8.40
2015,09,29,00,57,8.40
2015,09,29,00,58,8.40
2015,09,29,00,59,8.40
2015,09,29,01,00,8.40
2015,09,29,01,01,8.40
2015,09,29,01,02,8.40
2015,09,29,01,03,8.40
2015,09,29,01,04,8.40
2015,09,29,01,05,8.40
2015,09,29,01,06,8.40
2015,09,29,01,07,8.40
2015,09,29,01,08,8.40
2015,09,29,01,09,8.30
2015,09,29,01,10,8.30
2015,09,29,01,11,8.30
2015,09,29,01,12,8.30
2015,09,29,01,13,8.30
2015,09,29,01,14,8.30
2015,09,29,01,15,8.30
2015,09,29,01,16,8.30
2015,09,29,01,17,8.30
2015,09,29,01,18,8.30
2015,09,29,01,19,8.30
2015,09,29,01,20,8.30
2015,09,29,01,21,8.30
2015,09,29,01,22,8.30
2015,09,29,01,23,8.30
2015,09,29,01,24,8.30
2015,09,29,01,25,8.30
2015,09,29,01,26,8.20
2015,09,29,01,27,8.20
2015,09,29,01,28,8.20
2015,09,29,01,29,8.20
2015,09,29,01,30,8.20
2015,09,29,01,31,8.20
2015,09,29,01,32,8.20
2015,09,29,01,33,8.20
2015,09,29,01,34,8.20
2015,09,29,01,35,8.20
2015,09,29,01,36,8.20
2015,09,29,01,37,8.20
2015,09,29,01,38,8.20
2015,09,29,01,39,8.20
2015,09,29,01,40,8.20
2015,09,29,01,41,8.20
2015,09,29,01,42,8.20
2015,09,29,01,43,8.20
2015,09,29,01,44,8.20
2015,09,29,01,45,8.20
2015,09,29,01,46,8.20
2015,09,29,01,47,8.10
2015,09,29,01,48,8.10
2015,09,29,01,49,8.10
2015,09,29,01,50,8.10
2015,09,29,01,51,8.10
2015,09,29,01,52,8.10
2015,09,29,01,53,8.10
2015,09,29,01,54,8.10
2015,09,29,01,55,8.10
2015,09,29,01,56,8.10
2015,09,29,01,57,8.10
2015,09,29,01,58,8.10
2015,09,29,01,59,8.10
2015,09,29,02,00,8.10
2015,09,29,02,01,8.10
2015,09,29,02,02,8.10
2015,09,29,02,03,8.10
2015,09,29,02,04,8.10
2015,09,29,02,05,8.00
2015,09,29,02,06,8.00
2015,09,29,02,07,8.00
2015,09,29,02,08,8.00
2015,09,29,02,09,8.00
2015,09,29,02,10,8.00
2015,09,29,02,11,8.00
2015,09,29,02,12,8.00
2015,09,29,02,13,8.00
2015,09,29,02,14,8.00
2015,09,29,02,15,8.00
2015,09,29,02,16,8.00
2015,09,29,02,17,8.00
2015,09,29,02,18,8.00
2015,09,29,02,19,8.00
2015,09,29,02,20,8.00
2015,09,29,02,21,8.00
2015,09,29,02,22,8.00
2015,09,29,02,23,8.00
2015,09,29,02,24,8.00
2015,09,29,02,25,7.90
2015,09,29,02,26,7.90
2015,09,29,02,27,7.90
2015,09,29,02,28,7.90
2015,09,29,02,29,7.90
2015,09,29,02,30,7.90
2015,09,29,02,31,7.90
2015,09,29,02,32,7.90
2015,09,29,02,33,7.90
2015,09,29,02,34,7.90
2015,09,29,02,35,7.90
2015,09,29,02,36,7.90
2015,09,29,02,37,7.90
2015,09,29,02,38,7.90
2015,09,29,02,39,7.90
2015,09,29,02,40,7.90
2015,09,29,02,41,7.90
2015,09,29,02,42,7.90
2015,09,29,02,43,7.90
2015,09,29,02,44,7.90
2015,09,29,02,45,7.90
2015,09,29,02,46,7.90
2015,09,29,02,47,7.90
2015,09,29,02,48,7.90
2015,09,29,02,49,7.90
2015,09,29,02,50,7.90
2015,09,29,02,51,7.90
2015,09,29,02,52,7.90
2015,09,29,02,53,7.90
2015,09,29,02,54,7.90
2015,09,29,02,55,7.90
2015,09,29,02,56,7.80
2015,09,29,02,57,7.80
2015,09,29,02,58,7.80
2015,09,29,02,59,7.80
2015,09,29,03,00,7.80
2015,09,29,03,01,7.80
2015,09,29,03,02,7.90
2015,09,29,03,03,7.80
2015,09,29,03,04,7.90
2015,09,29,03,05,7.90
2015,09,29,03,06,7.90
2015,09,29,03,07,7.90
2015,09,29,03,08,7.90
2015,09,29,03,09,7.80
2015,09,29,03,10,7.90
2015,09,29,03,11,7.90
2015,09,29,03,12,7.90
2015,09,29,03,13,7.90
2015,09,29,03,14,7.80
2015,09,29,03,15,7.80
2015,09,29,03,16,7.80
2015,09,29,03,17,7.80
2015,09,29,03,18,7.80
2015,09,29,03,19,7.80
2015,09,29,03,20,7.80
2015,09,29,03,21,7.80
2015,09,29,03,22,7.80
2015,09,29,03,23,7.80
2015,09,29,03,24,7.80
2015,09,29,03,25,7.80
2015,09,29,03,26,7.80
2015,09,29,03,27,7.80
2015,09,29,03,28,7.80
2015,09,29,03,29,7.80
2015,09,29,03,30,7.80
2015,09,29,03,31,7.80
2015,09,29,03,32,7.80
2015,09,29,03,33,7.80
2015,09,29,03,34,7.80
2015,09,29,03,35,7.80
2015,09,29,03,36,7.80
2015,09,29,03,37,7.80
2015,09,29,03,38,7.80
2015,09,29,03,39,7.80
2015,09,29,03,40,7.80
2015,09,29,03,41,7.80
2015,09,29,03,42,7.80
2015,09,29,03,43,7.80
2015,09,29,03,44,7.80
2015,09,29,03,45,7.80
2015,09,29,03,46,7.80
2015,09,29,03,47,7.80
2015,09,29,03,48,7.80
2015,09,29,03,49,7.80
2015,09,29,03,50,7.80
2015,09,29,03,51,7.90
2015,09,29,03,52,7.90
2015,09,29,03,53,7.90
2015,09,29,03,54,7.90
2015,09,29,03,55,7.90
2015,09,29,03,56,7.90
2015,09,29,03,57,7.80
2015,09,29,03,58,7.80
2015,09,29,03,59,7.80
2015,09,29,04,00,7.80
2015,09,29,04,01,7.80
2015,09,29,04,02,7.80
2015,09,29,04,03,7.80
2015,09,29,04,04,7.80
2015,09,29,04,05,7.80
2015,09,29,04,06,7.80
2015,09,29,04,07,7.80
2015,09,29,04,08,7.80
2015,09,29,04,09,7.80
2015,09,29,04,10,7.80
2015,09,29,04,11,7.80
2015,09,29,04,12,7.80
2015,09,29,04,13,7.80
2015,09,29,04,14,7.80
2015,09,29,04,15,7.80
2015,09,29,04,16,7.80
2015,09,29,04,17,7.80
2015,09,29,04,18,7.80
2015,09,29,04,19,7.80
2015,09,29,04,20,7.80
2015,09,29,04,21,7.80
2015,09,29,04,22,7.80
2015,09,29,04,23,7.80
2015,09,29,04,24,7.80
2015,09,29,04,25,7.80
2015,09,29,04,26,7.80
2015,09,29,04,27,7.80
2015,09,29,04,28,7.80
2015,09,29,04,29,7.80
2015,09,29,04,30,7.80
2015,09,29,04,31,7.80
2015,09,29,04,32,7.80
2015,09,29,04,33,7.80
2015,09,29,04,34,7.80
2015,09,29,04,35,7.80
2015,09,29,04,36,7.80
2015,09,29,04,37,7.80
2015,09,29,04,38,7.80
2015,09,29,04,39,7.80
2015,09,29,04,40,7.80
2015,09,29,04,41,7.80
2015,09,29,04,42,7.80
2015,09,29,04,43,7.80
2015,09,29,04,44,7.80
2015,09,29,04,45,7.80
2015,09,29,04,46,7.80
2015,09,29,04,47,7.80
2015,09,29,04,48,7.80
2015,09,29,04,49,7.80
2015,09,29,04,50,7.80
2015,09,29,04,51,7.80
2015,09,29,04,52,7.80
2015,09,29,04,53,7.80
2015,09,29,04,54,7.80
2015,09,29,04,55,7.80
2015,09,29,04,56,7.80
2015,09,29,04,57,7.80
2015,09,29,04,58,7.80
2015,09,29,04,59,7.80
2015,09,29,05,00,7.80
2015,09,29,05,01,7.80
2015,09,29,05,02,7.80
2015,09,29,05,03,7.80
2015,09,29,05,04,7.80
2015,09,29,05,05,7.80
2015,09,29,05,06,7.80
2015,09,29,05,07,7.80
2015,09,29,05,08,7.80
2015,09,29,05,09,7.80
2015,09,29,05,10,7.80
2015,09,29,05,11,7.80
2015,09,29,05,12,7.80
2015,09,29,05,13,7.80
2015,09,29,05,14,7.80
2015,09,29,05,15,7.80
2015,09,29,05,16,7.80
2015,09,29,05,17,7.80
2015,09,29,05,18,7.80
2015,09,29,05,19,7.80
2015,09,29,05,20,7.80
2015,09,29,05,21,7.80
2015,09,29,05,22,7.80
2015,09,29,05,23,7.80
2015,09,29,05,24,7.80
2015,09,29,05,25,7.80
2015,09,29,05,26,7.80
2015,09,29,05,27,7.80
2015,09,29,05,28,7.80
2015,09,29,05,29,7.80
2015,09,29,05,30,7.80
2015,09,29,05,31,7.90
2015,09,29,05,32,7.90
2015,09,29,05,33,7.90
2015,09,29,05,34,7.90
2015,09,29,05,35,7.90
2015,09,29,05,36,7.90
2015,09,29,05,37,7.90
2015,09,29,05,38,7.90
2015,09,29,05,39,7.90
2015,09,29,05,40,7.90
2015,09,29,05,41,7.90
2015,09,29,05,42,7.90
2015,09,29,05,43,7.90
2015,09,29,05,44,7.90
2015,09,29,05,45,7.90
2015,09,29,05,46,7.90
2015,09,29,05,47,7.90
2015,09,29,05,48,7.90
2015,09,29,05,49,7.90
2015,09,29,05,50,7.90
2015,09,29,05,51,7.90
2015,09,29,05,52,7.90
2015,09,29,05,53,7.90
2015,09,29,05,54,7.90
2015,09,29,05,55,7.90
2015,09,29,05,56,7.90
2015,09,29,05,57,7.90
2015,09,29,05,58,7.90
2015,09,29,05,59,7.90
2015,09,29,06,00,7.90
2015,09,29,06,01,7.90
2015,09,29,06,02,7.90
2015,09,29,06,03,7.90
2015,09,29,06,04,8.00
2015,09,29,06,05,7.90
2015,09,29,06,06,7.90
2015,09,29,06,07,7.90
2015,09,29,06,08,7.90
2015,09,29,06,09,7.90
2015,09,29,06,10,7.90
2015,09,29,06,11,8.00
2015,09,29,06,12,8.00
2015,09,29,06,13,8.00
2015,09,29,06,14,8.00
2015,09,29,06,15,8.00
2015,09,29,06,16,8.00
2015,09,29,06,17,8.00
2015,09,29,06,18,8.00
2015,09,29,06,19,8.00
2015,09,29,06,20,8.00
2015,09,29,06,21,8.00
2015,09,29,06,22,7.90
2015,09,29,06,23,7.90
2015,09,29,06,24,7.90
2015,09,29,06,25,7.90
2015,09,29,06,26,7.90
2015,09,29,06,27,7.90
2015,09,29,06,28,7.90
2015,09,29,06,29,7.90
2015,09,29,06,30,7.90
2015,09,29,06,31,7.90
2015,09,29,06,32,7.90
2015,09,29,06,33,7.90
2015,09,29,06,34,7.90
2015,09,29,06,35,7.90
2015,09,29,06,36,7.90
2015,09,29,06,37,7.90
2015,09,29,06,38,7.90
2015,09,29,06,39,7.90
2015,09,29,06,40,7.90
2015,09,29,06,41,7.90
2015,09,29,06,42,7.80
2015,09,29,06,43,7.80
2015,09,29,06,44,7.80
2015,09,29,06,45,7.80
2015,09,29,06,46,7.80
2015,09,29,06,47,7.80
2015,09,29,06,48,7.80
2015,09,29,06,49,7.80
2015,09,29,06,50,7.80
2015,09,29,06,51,7.80
2015,09,29,06,52,7.80
2015,09,29,06,53,7.80
2015,09,29,06,54,7.80
2015,09,29,06,55,7.80
2015,09,29,06,56,7.80
2015,09,29,06,57,7.80
2015,09,29,06,58,7.80
2015,09,29,06,59,7.80
2015,09,29,07,00,7.80
2015,09,29,07,01,7.80
2015,09,29,07,02,7.80
2015,09,29,07,03,7.80
2015,09,29,07,04,7.80
2015,09,29,07,05,7.80
2015,09,29,07,06,7.80
2015,09,29,07,07,7.80
2015,09,29,07,08,7.80
2015,09,29,07,09,7.80
2015,09,29,07,10,7.80
2015,09,29,07,11,7.80
2015,09,29,07,12,7.80
2015,09,29,07,13,7.80
2015,09,29,07,14,7.80
2015,09,29,07,15,7.80
2015,09,29,07,16,7.80
2015,09,29,07,17,7.80
2015,09,29,07,18,7.80
2015,09,29,07,19,7.80
2015,09,29,07,20,7.80
2015,09,29,07,21,7.80
2015,09,29,07,22,7.80
2015,09,29,07,23,7.90
2015,09,29,07,24,7.90
2015,09,29,07,25,7.90
2015,09,29,07,26,7.90
2015,09,29,07,27,7.90
2015,09,29,07,28,7.90
2015,09,29,07,29,7.90
2015,09,29,07,30,7.90
2015,09,29,07,31,7.90
2015,09,29,07,32,7.90
2015,09,29,07,33,7.90
2015,09,29,07,34,7.90
2015,09,29,07,35,7.90
2015,09,29,07,36,7.90
2015,09,29,07,37,7.90
2015,09,29,07,38,7.90
2015,09,29,07,39,7.90
2015,09,29,07,40,7.90
2015,09,29,07,41,7.90
2015,09,29,07,42,7.90
2015,09,29,07,43,7.90
2015,09,29,07,44,7.90
2015,09,29,07,45,7.90
2015,09,29,07,46,7.90
2015,09,29,07,47,8.00
2015,09,29,07,48,8.00
2015,09,29,07,49,8.00
2015,09,29,07,50,8.00
2015,09,29,07,51,8.00
2015,09,29,07,52,8.00
2015,09,29,07,53,8.00
2015,09,29,07,54,8.10
2015,09,29,07,55,8.10
2015,09,29,07,56,8.10
2015,09,29,07,57,8.10
2015,09,29,07,58,8.10
2015,09,29,07,59,8.10
2015,09,29,08,00,8.10
2015,09,29,08,01,8.10
2015,09,29,08,02,8.10
2015,09,29,08,03,8.10
2015,09,29,08,04,8.20
2015,09,29,08,05,8.20
2015,09,29,08,06,8.20
2015,09,29,08,07,8.20
2015,09,29,08,08,8.20
2015,09,29,08,09,8.20
2015,09,29,08,10,8.30
2015,09,29,08,11,8.30
2015,09,29,08,12,8.30
2015,09,29,08,13,8.30
2015,09,29,08,14,8.40
2015,09,29,08,15,8.40
2015,09,29,08,16,8.40
2015,09,29,08,17,8.40
2015,09,29,08,18,8.40
2015,09,29,08,19,8.50
2015,09,29,08,20,8.50
2015,09,29,08,21,8.60
2015,09,29,08,22,8.60
2015,09,29,08,23,8.60
2015,09,29,08,24,8.60
2015,09,29,08,25,8.70
2015,09,29,08,26,8.70
2015,09,29,08,27,8.70
2015,09,29,08,28,8.80
2015,09,29,08,29,8.80
2015,09,29,08,30,8.80
2015,09,29,08,31,8.80
2015,09,29,08,32,8.90
2015,09,29,08,33,8.90
2015,09,29,08,34,9.00
2015,09,29,08,35,9.00
2015,09,29,08,36,9.10
2015,09,29,08,37,9.20
2015,09,29,08,38,9.20
2015,09,29,08,39,9.30
2015,09,29,08,40,9.30
2015,09,29,08,41,9.40
2015,09,29,08,42,9.50
2015,09,29,08,43,9.60
2015,09,29,08,44,9.60
2015,09,29,08,45,9.70
2015,09,29,08,46,9.80
2015,09,29,08,47,9.90
2015,09,29,08,48,10.00
2015,09,29,08,49,10.10
2015,09,29,08,50,10.20
2015,09,29,08,51,10.20
2015,09,29,08,52,10.20
2015,09,29,08,53,10.30
2015,09,29,08,54,10.30
2015,09,29,08,55,10.40
2015,09,29,08,56,10.50
2015,09,29,08,57,10.60
2015,09,29,08,58,10.60
2015,09,29,08,59,10.70
2015,09,29,09,00,10.80
2015,09,29,09,01,10.90
2015,09,29,09,02,10.90
2015,09,29,09,03,11.00
2015,09,29,09,04,11.00
2015,09,29,09,05,11.00
2015,09,29,09,06,11.00
2015,09,29,09,07,11.10
2015,09,29,09,08,11.10
2015,09,29,09,09,11.20
2015,09,29,09,10,11.20
2015,09,29,09,11,11.20
2015,09,29,09,12,11.30
2015,09,29,09,13,11.30
2015,09,29,09,14,11.40
2015,09,29,09,15,11.40
2015,09,29,09,16,11.40
2015,09,29,09,17,11.50
2015,09,29,09,18,11.40
2015,09,29,09,19,11.40
2015,09,29,09,20,11.40
2015,09,29,09,21,11.50
2015,09,29,09,22,11.60
2015,09,29,09,23,11.60
2015,09,29,09,24,11.70
2015,09,29,09,25,11.80
2015,09,29,09,26,11.90
2015,09,29,09,27,11.90
2015,09,29,09,28,12.00
2015,09,29,09,29,12.00
2015,09,29,09,30,12.10
2015,09,29,09,31,12.20
2015,09,29,09,32,12.40
2015,09,29,09,33,12.50
2015,09,29,09,34,12.60
2015,09,29,09,35,12.70
2015,09,29,09,36,12.80
2015,09,29,09,37,12.90
2015,09,29,09,38,13.00
2015,09,29,09,39,13.10
2015,09,29,09,40,13.10
2015,09,29,09,41,13.20
2015,09,29,09,42,13.30
2015,09,29,09,43,13.40
2015,09,29,09,44,13.40
2015,09,29,09,45,13.40
2015,09,29,09,46,13.50
2015,09,29,09,47,13.50
2015,09,29,09,48,13.50
2015,09,29,09,49,13.50
2015,09,29,09,50,13.50
2015,09,29,09,51,13.50
2015,09,29,09,52,13.50
2015,09,29,09,53,13.50
2015,09,29,09,54,13.50
2015,09,29,09,55,13.60
2015,09,29,09,56,13.60
2015,09,29,09,57,13.70
2015,09,29,09,58,13.70
2015,09,29,09,59,13.80
2015,09,29,10,00,13.80
2015,09,29,10,01,13.80
2015,09,29,10,02,13.90
2015,09,29,10,03,13.90
2015,09,29,10,04,13.90
2015,09,29,10,05,13.90
2015,09,29,10,06,13.80
2015,09,29,10,07,13.80
2015,09,29,10,08,13.80
2015,09,29,10,09,13.80
2015,09,29,10,10,13.80
2015,09,29,10,11,13.80
2015,09,29,10,12,13.80
2015,09,29,10,13,13.80
2015,09,29,10,14,13.80
2015,09,29,10,15,13.80
2015,09,29,10,16,13.80
2015,09,29,10,17,13.90
2015,09,29,10,18,13.90
2015,09,29,10,19,13.90
2015,09,29,10,20,13.90
2015,09,29,10,21,13.90
2015,09,29,10,22,14.00
2015,09,29,10,23,14.10
2015,09,29,10,24,14.10
2015,09,29,10,25,14.20
2015,09,29,10,26,14.20
2015,09,29,10,27,14.20
2015,09,29,10,28,14.30
2015,09,29,10,29,14.30
2015,09,29,10,30,14.30
2015,09,29,10,31,14.30
2015,09,29,10,32,14.40
2015,09,29,10,33,14.40
2015,09,29,10,34,14.40
2015,09,29,10,35,14.50
2015,09,29,10,36,14.50
2015,09,29,10,37,14.50
2015,09,29,10,38,14.60
2015,09,29,10,39,14.60
2015,09,29,10,40,14.60
2015,09,29,10,41,14.60
2015,09,29,10,42,14.60
2015,09,29,10,43,14.60
2015,09,29,10,44,14.70
2015,09,29,10,45,14.70
2015,09,29,10,46,14.70
2015,09,29,10,47,14.70
2015,09,29,10,48,14.80
2015,09,29,10,49,14.80
2015,09,29,10,50,14.90
2015,09,29,10,51,14.90
2015,09,29,10,52,15.00
2015,09,29,10,53,15.00
2015,09,29,10,54,15.00
2015,09,29,10,55,15.00
2015,09,29,10,56,15.00
2015,09,29,10,57,15.00
2015,09,29,10,58,15.00
2015,09,29,10,59,15.00
2015,09,29,11,00,15.00
2015,09,29,11,01,15.00
2015,09,29,11,02,15.00
2015,09,29,11,03,15.00
2015,09,29,11,04,15.00
2015,09,29,11,05,15.10
2015,09,29,11,06,15.20
2015,09,29,11,07,15.20
2015,09,29,11,08,15.20
2015,09,29,11,09,15.20
2015,09,29,11,10,15.30
2015,09,29,11,11,15.30
2015,09,29,11,12,15.30
2015,09,29,11,13,15.40
2015,09,29,11,14,15.40
2015,09,29,11,15,15.40
2015,09,29,11,16,15.50
2015,09,29,11,17,15.50
2015,09,29,11,18,15.60
2015,09,29,11,19,15.60
2015,09,29,11,20,15.70
2015,09,29,11,21,15.70
2015,09,29,11,22,15.70
2015,09,29,11,23,15.80
2015,09,29,11,24,15.80
2015,09,29,11,25,15.80
2015,09,29,11,26,15.80
2015,09,29,11,27,15.80
2015,09,29,11,28,15.80
2015,09,29,11,29,15.80
2015,09,29,11,30,15.80
2015,09,29,11,31,15.80
2015,09,29,11,32,15.90
2015,09,29,11,33,15.90
2015,09,29,11,34,15.90
2015,09,29,11,35,15.90
2015,09,29,11,36,15.90
2015,09,29,11,37,15.90
2015,09,29,11,38,15.90
2015,09,29,11,39,15.90
2015,09,29,11,40,15.90
2015,09,29,11,41,15.90
2015,09,29,11,42,15.90
2015,09,29,11,43,15.90
2015,09,29,11,44,16.00
2015,09,29,11,45,16.00
2015,09,29,11,46,16.10
2015,09,29,11,47,16.10
2015,09,29,11,48,16.10
2015,09,29,11,49,16.10
2015,09,29,11,50,16.10
2015,09,29,11,51,16.10
2015,09,29,11,52,16.10
2015,09,29,11,53,16.20
2015,09,29,11,54,16.20
2015,09,29,11,55,16.20
2015,09,29,11,56,16.20
2015,09,29,11,57,16.20
2015,09,29,11,58,16.30
2015,09,29,11,59,16.30
2015,09,29,12,00,16.40
2015,09,29,12,01,16.40
2015,09,29,12,02,16.50
2015,09,29,12,03,16.50
2015,09,29,12,04,16.60
2015,09,29,12,05,16.60
2015,09,29,12,06,16.60
2015,09,29,12,07,16.70
2015,09,29,12,08,16.70
2015,09,29,12,09,16.80
2015,09,29,12,10,16.80
2015,09,29,12,11,16.90
2015,09,29,12,12,16.90
2015,09,29,12,13,16.90
2015,09,29,12,14,16.90
2015,09,29,12,15,16.90
2015,09,29,12,16,16.90
2015,09,29,12,17,16.90
2015,09,29,12,18,16.90
2015,09,29,12,19,17.00
2015,09,29,12,20,17.00
2015,09,29,12,21,17.00
2015,09,29,12,22,17.00
2015,09,29,12,23,17.10
2015,09,29,12,24,17.10
2015,09,29,12,25,17.10
2015,09,29,12,26,17.10
2015,09,29,12,27,17.10
2015,09,29,12,28,17.10
2015,09,29,12,29,17.10
2015,09,29,12,30,17.20
2015,09,29,12,31,17.20
2015,09,29,12,32,17.20
2015,09,29,12,33,17.30
2015,09,29,12,34,17.30
2015,09,29,12,35,17.30
2015,09,29,12,36,17.30
2015,09,29,12,37,17.30
2015,09,29,12,38,17.40
2015,09,29,12,39,17.40
2015,09,29,12,40,17.40
2015,09,29,12,41,17.40
2015,09,29,12,42,17.40
2015,09,29,12,43,17.40
2015,09,29,12,44,17.40
2015,09,29,12,45,17.50
2015,09,29,12,46,17.60
2015,09,29,12,47,17.60
2015,09,29,12,48,17.70
2015,09,29,12,49,17.70
2015,09,29,12,50,17.70
2015,09,29,12,51,17.70
2015,09,29,12,52,17.80
2015,09,29,12,53,17.80
2015,09,29,12,54,17.90
2015,09,29,12,55,17.90
2015,09,29,12,56,17.90
2015,09,29,12,57,18.00
2015,09,29,12,58,18.00
2015,09,29,12,59,18.00
2015,09,29,13,00,18.00
2015,09,29,13,01,17.90
2015,09,29,13,02,17.90
2015,09,29,13,03,17.90
2015,09,29,13,04,17.90
2015,09,29,13,05,17.90
2015,09,29,13,06,17.90
2015,09,29,13,07,17.90
2015,09,29,13,08,17.90
2015,09,29,13,09,17.90
2015,09,29,13,10,18.00
2015,09,29,13,11,18.00
2015,09,29,13,12,18.00
2015,09,29,13,13,18.10
2015,09,29,13,14,18.10
2015,09,29,13,15,18.10
2015,09,29,13,16,18.20
2015,09,29,13,17,18.20
2015,09,29,13,18,18.20
2015,09,29,13,19,18.20
2015,09,29,13,20,18.30
2015,09,29,13,21,18.30
2015,09,29,13,22,18.30
2015,09,29,13,23,18.40
2015,09,29,13,24,18.40
2015,09,29,13,25,18.50
2015,09,29,13,26,18.60
2015,09,29,13,27,18.70
2015,09,29,13,28,18.70
2015,09,29,13,29,18.80
2015,09,29,13,30,18.80
2015,09,29,13,31,18.80
2015,09,29,13,32,18.80
2015,09,29,13,33,18.80
2015,09,29,13,34,18.80
2015,09,29,13,35,18.80
2015,09,29,13,36,18.70
2015,09,29,13,37,18.70
2015,09,29,13,38,18.80
2015,09,29,13,39,18.80
2015,09,29,13,40,18.80
2015,09,29,13,41,18.80
2015,09,29,13,42,18.80
2015,09,29,13,43,18.80
2015,09,29,13,44,18.80
2015,09,29,13,45,18.90
2015,09,29,13,46,18.90
2015,09,29,13,47,18.90
2015,09,29,13,48,19.00
2015,09,29,13,49,19.10
2015,09,29,13,50,19.20
2015,09,29,13,51,19.30
2015,09,29,13,52,19.30
2015,09,29,13,53,19.40
2015,09,29,13,54,19.40
2015,09,29,13,55,19.40
2015,09,29,13,56,19.50
2015,09,29,13,57,19.50
2015,09,29,13,58,19.50
2015,09,29,13,59,19.50
2015,09,29,14,00,19.50
2015,09,29,14,01,19.50
2015,09,29,14,02,19.50
2015,09,29,14,03,19.50
2015,09,29,14,04,19.50
2015,09,29,14,05,19.60
2015,09,29,14,06,19.60
2015,09,29,14,07,19.60
2015,09,29,14,08,19.70
2015,09,29,14,09,19.70
2015,09,29,14,10,19.70
2015,09,29,14,11,19.70
2015,09,29,14,12,19.70
2015,09,29,14,13,19.70
2015,09,29,14,14,19.70
2015,09,29,14,15,19.70
2015,09,29,14,16,19.70
2015,09,29,14,17,19.70
2015,09,29,14,18,19.70
2015,09,29,14,19,19.80
2015,09,29,14,20,19.80
2015,09,29,14,21,19.80
2015,09,29,14,22,19.90
2015,09,29,14,23,19.90
2015,09,29,14,24,19.90
2015,09,29,14,25,19.90
2015,09,29,14,26,19.90
2015,09,29,14,27,19.90
2015,09,29,14,28,19.90
2015,09,29,14,29,19.90
2015,09,29,14,30,19.90
2015,09,29,14,31,19.90
2015,09,29,14,32,19.90
2015,09,29,14,33,20.00
2015,09,29,14,34,20.00
2015,09,29,14,35,20.10
2015,09,29,14,36,20.10
2015,09,29,14,37,20.20
2015,09,29,14,38,20.20
2015,09,29,14,39,20.30
2015,09,29,14,40,20.30
2015,09,29,14,41,20.30
2015,09,29,14,42,20.30
2015,09,29,14,43,20.40
2015,09,29,14,44,20.40
2015,09,29,14,45,20.40
2015,09,29,14,46,20.40
2015,09,29,14,47,20.40
2015,09,29,14,48,20.40
2015,09,29,14,49,20.50
2015,09,29,14,50,20.50
2015,09,29,14,51,20.60
2015,09,29,14,52,20.60
2015,09,29,14,53,20.60
2015,09,29,14,54,20.60
2015,09,29,14,55,20.60
2015,09,29,14,56,20.60
2015,09,29,14,57,20.50
2015,09,29,14,58,20.50
2015,09,29,14,59,20.50
2015,09,29,15,00,20.50
2015,09,29,15,01,20.50
2015,09,29,15,02,20.40
2015,09,29,15,03,20.40
2015,09,29,15,04,20.40
2015,09,29,15,05,20.40
2015,09,29,15,06,20.40
2015,09,29,15,07,20.50
2015,09,29,15,08,20.60
2015,09,29,15,09,20.60
2015,09,29,15,10,20.60
2015,09,29,15,11,20.60
2015,09,29,15,12,20.60
2015,09,29,15,13,20.60
2015,09,29,15,14,20.60
2015,09,29,15,15,20.60
2015,09,29,15,16,20.60
2015,09,29,15,17,20.50
2015,09,29,15,18,20.50
2015,09,29,15,19,20.40
2015,09,29,15,20,20.30
2015,09,29,15,21,20.30
2015,09,29,15,22,20.30
2015,09,29,15,23,20.20
2015,09,29,15,24,20.20
2015,09,29,15,25,20.10
2015,09,29,15,26,20.00
2015,09,29,15,27,19.90
2015,09,29,15,28,19.80
2015,09,29,15,29,19.80
2015,09,29,15,30,19.80
2015,09,29,15,31,19.80
2015,09,29,15,32,19.70
2015,09,29,15,33,19.70
2015,09,29,15,34,19.70
2015,09,29,15,35,19.70
2015,09,29,15,36,19.70
2015,09,29,15,37,19.70
2015,09,29,15,38,19.60
2015,09,29,15,39,19.60
2015,09,29,15,40,19.60
2015,09,29,15,41,19.50
2015,09,29,15,42,19.50
2015,09,29,15,43,19.50
2015,09,29,15,44,19.50
2015,09,29,15,45,19.50
2015,09,29,15,46,19.40
2015,09,29,15,47,19.40
2015,09,29,15,48,19.40
2015,09,29,15,49,19.40
2015,09,29,15,50,19.40
2015,09,29,15,51,19.40
2015,09,29,15,52,19.50
2015,09,29,15,53,19.50
2015,09,29,15,54,19.50
2015,09,29,15,55,19.60
2015,09,29,15,56,19.60
2015,09,29,15,57,19.70
2015,09,29,15,58,19.70
2015,09,29,15,59,19.70
2015,09,29,16,00,19.80
2015,09,29,16,01,19.80
2015,09,29,16,02,19.80
2015,09,29,16,03,19.90
2015,09,29,16,04,19.90
2015,09,29,16,05,19.90
2015,09,29,16,06,19.90
2015,09,29,16,07,20.00
2015,09,29,16,08,20.00
2015,09,29,16,09,20.00
2015,09,29,16,10,20.10
2015,09,29,16,11,20.10
2015,09,29,16,12,20.20
2015,09,29,16,13,20.20
2015,09,29,16,14,20.20
2015,09,29,16,15,20.20
2015,09,29,16,16,20.20
2015,09,29,16,17,20.20
2015,09,29,16,18,20.20
2015,09,29,16,19,20.20
2015,09,29,16,20,20.20
2015,09,29,16,21,20.20
2015,09,29,16,22,20.20
2015,09,29,16,23,20.20
2015,09,29,16,24,20.20
2015,09,29,16,25,20.30
2015,09,29,16,26,20.30
2015,09,29,16,27,20.30
2015,09,29,16,28,20.30
2015,09,29,16,29,20.30
2015,09,29,16,30,20.30
2015,09,29,16,31,20.30
2015,09,29,16,32,20.30
2015,09,29,16,33,20.40
2015,09,29,16,34,20.40
2015,09,29,16,35,20.40
2015,09,29,16,36,20.40
2015,09,29,16,37,20.40
2015,09,29,16,38,20.40
2015,09,29,16,39,20.40
2015,09,29,16,40,20.40
2015,09,29,16,41,20.30
2015,09,29,16,42,20.30
2015,09,29,16,43,20.20
2015,09,29,16,44,20.20
2015,09,29,16,45,20.10
2015,09,29,16,46,20.00
2015,09,29,16,47,19.90
2015,09,29,16,48,19.90
2015,09,29,16,49,19.80
2015,09,29,16,50,19.80
2015,09,29,16,51,19.70
2015,09,29,16,52,19.60
2015,09,29,16,53,19.40
2015,09,29,16,54,19.30
2015,09,29,16,55,19.20
2015,09,29,16,56,19.10
2015,09,29,16,57,19.10
2015,09,29,16,58,19.00
2015,09,29,16,59,19.00
2015,09,29,17,00,19.00
2015,09,29,17,01,19.10
2015,09,29,17,02,19.10
2015,09,29,17,03,19.10
2015,09,29,17,04,19.00
2015,09,29,17,05,19.00
2015,09,29,17,06,19.10
2015,09,29,17,07,19.10
2015,09,29,17,08,19.10
2015,09,29,17,09,19.10
2015,09,29,17,10,19.10
2015,09,29,17,11,19.10
2015,09,29,17,12,19.00
2015,09,29,17,13,18.90
2015,09,29,17,14,18.80
2015,09,29,17,15,18.70
2015,09,29,17,16,18.50
2015,09,29,17,17,18.50
2015,09,29,17,18,18.40
2015,09,29,17,19,18.30
2015,09,29,17,20,18.30
2015,09,29,17,21,18.30
2015,09,29,17,22,18.20
2015,09,29,17,23,18.20
2015,09,29,17,24,18.20
2015,09,29,17,25,18.10
2015,09,29,17,26,18.10
2015,09,29,17,27,18.10
2015,09,29,17,28,18.10
2015,09,29,17,29,18.10
2015,09,29,17,30,18.10
2015,09,29,17,31,18.10
2015,09,29,17,32,18.10
2015,09,29,17,33,18.10
2015,09,29,17,34,18.00
2015,09,29,17,35,18.00
2015,09,29,17,36,18.00
2015,09,29,17,37,17.90
2015,09,29,17,38,17.80
2015,09,29,17,39,17.80
2015,09,29,17,40,17.70
2015,09,29,17,41,17.70
2015,09,29,17,42,17.60